星链-32405 (STARLINK-32405)

导读

STARLINK-32405是美国SpaceX公司星链(Starlink)卫星互联网项目中的一颗低轨通信卫星,于2024年10月23日发射。它运行在近地轨道,依托星链星座组网,旨在为全球提供高速低延迟宽带互联网服务,尤其服务偏远地区,缩小数字鸿沟。作为星链大规模组网的一员,它采用成熟技术设计,具备自动避撞能力,保障太空运行安全,助力星链全球覆盖的卫星互联网网络构建。

基本信息
目录编号:
61636
目录名称:
STARLINK-32405
国际标识:
2024-191R
轨道中心:
EARTH
卫星名称:
星链-32405
卫星全名:
星链-32405 (STARLINK-32405)
卫星状态:
在轨 (已飞行689 天)
发射日期:
2024-10-23 UTC
国别 :
美国 (US)
星等 :
--
该卫星已列入 空间交会检测服务 Space Conjunction Data Service (SCDS) ,当前飞行风险评估等级: 高风险
轨道信息
数据来源 国际轨道数据 AOE轨道数据
星历时间 2026-09-11T20:41:01+0800
14小时前
查看轨道信息
2026-09-10T00:00:00+0800
2天前
查看轨道信息
半长轴 6861.202km 6861.226km
偏心率 0.0000899 0.0000012
轨道倾角 43.003° 43.000°
近地点辐角 283.608° 176.637°
升交点赤经 188.825° 199.341°
平近点角 76.468° 12.760°
近地点 482.448km 483.08km
远地点 483.682km 483.098km
周期 94.267分钟 94.268分钟
每日圈数 15.27575 15.27567
详细信息
固有亮度:
5
最大亮度:
2.5
卫星平台:
Starlink V1.0
覆盖范围:
全球
运营商:
太空探索技术公司
运营商所在国:
美国
制造商(研发单位):
太空探索技术公司
制造商所在国:
美国
使用方式:
暂无
卫星简介
Starlink 计划是 SpaceX 推出的全球卫星互联网项目,通过发射低轨道卫星,为全球尤其是偏远地区提供高速、低延迟的互联网服务。自 2019 年起,Starlink 已部署数千颗卫星,旨在缩小全球数字鸿沟,推动互联网普及。该项目还为军事、航空等行业提供通信支持,带来广泛经济效益。
2D轨道图
3D轨道图
轨道高度分析图
轨道倾角分析图
轨道综合分析图
查看轨道综合分析图
交会数据列表
事件ID 空间交会对象 最接近时刻(TCA) 交会距离 交会风险概率(CRP) 交会风险指数(CRI) 操作
CDM_260913-192706-163606-674823
UMBRA-11 (66748)
2026-09-13T
19:27:01+0000
2.048 km
极远距离
2.611803E-6 低风险 0.43
CDM_260914-005506-163606-187121
OBJECT C (61871)
2026-09-14T
00:55:10+0000
2.635 km
极远距离
1.554206E-6 低风险 0.39
与全量物体交会距离演化趋势
与全量物体交会风险概率演化趋势